INTELSAT 709

Satellite information

Favourite Embed

Satellite Type and Status

PAYLOADIN ORBIT

Key statistics

Satellite INTELSAT 709 at a glance.

Uptime

10616

Days in orbit

Revolutions

≈ 1.0

Per day

Orbit

OTHER

Other

Inclination

10.0

Latest

Satellite identification and parameters

Extended collection of information and parameters for INTELSAT 709.

Object identification

Identified? True

Debris? False

Object name: INTELSAT 709

International designator: 1996-035A

Object number (NORAD): 23915

Object ID (CCSDS): 23915

Country: INTERNATIONAL TELECOMMUNICATIONS SATELLITE ORGANIZATION (INTELSAT) (ITSO)

Current information (Y/N): Y

RCS size: LARGE

Orbital parameters

Period: 1451.876 minutes

Inclination: 10.0005 deg

SMA: 42473.025 km

Apoapsis: 36159.457 km

Periapsis: 36030.322 km

RAAN: 50.7265 deg

Eccentricy: 0.0015202

Argument of periapsis: 222.2897 deg

Mean anomaly: 120.8384 deg

Mean motion: 0.99182026 rev/day

Mean motion (dot): -0.00000022 rev/day2

B* drag term: 0.0 1/REarth

Two-line elements (TLE)

Creation date: July 8, 2025, 10:36 p.m.

Reference frame: TEME

Reference center: EARTH

Epoch: July 8, 2025, 5:53 p.m. UTC

TLE line 0: 0 INTELSAT 709

TLE line 1: 1 23915U 96035A 25189.74514949 -.00000022 00000-0 00000+0 0 9995

TLE line 2: 2 23915 10.0005 50.7265 0015202 222.2897 120.8384 0.99182026105981

Live tracking on map

Real-time ground track for satellite INTELSAT 709.

In-orbit conjunctions

A list of the most updated potential collisions computed for object INTELSAT 709.

Target Orbit TCA Probability of collision Miss distance Type
GOES 12 OTHER 2025-06-16 10:49:27 TBA 3830.0 (m) PAYLOAD
SATCOM C1 OTHER 2024-12-11 20:48:30 TBA 1665.0 (m) PAYLOAD
SATCOM C1 OTHER 2024-10-30 00:28:42 TBA 1005.0 (m) PAYLOAD

Associated space launch

Geostationary communications satellite

INTELSAT 709 was lifted into orbit during the mission ‘Ariane 44P | INTELSAT 709’, on board a Ariane 44P space rocket.

The launch took place on June 15, 1996, 6:55 a.m. from Ariane Launch Area 2.

For more information about the launch, click the button.

Launch to space Ariane 44P | INTELSAT 709
Ariane 44P | INTELSAT 709

Agency: N/A

Status: Launch Successful

Launch date: June 15, 1996, 6:55 a.m. UTC

Rocket: Ariane 44P

Launch pad: Ariane Launch Area 2

Location: Guiana Space Centre, French Guiana

...

Latest news about this satellite

There are no fresh news available about this satellite. Check back as we update our databases every day.


Newsletter sign-up

Weekly statistics, charts and insights to help you stay on top of the space industry.